Wind_Speed
4 4 5 6 8 10 11 10 11 11 11 11 12 13 14 14 13 12 11 11 11 11 11 10 9 8 7 6 5 4 4 4 4 4 4 5 5 4 5 5 5 5 6 6 7 7 7 7 7
3 3 3 5 7 9 10 10 10 10 11 12 12 13 13 13 13 12 11 11 12 12 11 10 8 8 7 6 6 5 4 5 4 4 5 5 4 4 4 5 5 5 6 6 6 7 7 7 7
3 2 2 4 6 8 9 10 10 11 11 12 12 12 12 12 12 11 11 12 12 11 11 10 9 7 7 7 6 5 5 5 4 4 5 4 4 4 4 4 4 5 6 6 6 7 8 7 7
3 2 0 3 5 7 8 9 10 10 11 11 12 12 11 11 11 11 11 12 12 12 11 11 9 8 7 6 6 5 5 5 5 5 5 4 4 3 2 3 4 5 6 6 7 7 8 8 8
5 3 1 2 3 6 7 9 11 11 12 12 13 13 11 11 10 10 11 12 12 11 11 10 9 9 8 7 6 5 5 5 5 5 5 5 4 3 2 2 2 3 4 5 6 6 7 7 7
6 4 2 2 2 4 6 8 10 10 11 11 12 12 12 11 10 9 11 11 11 11 10 10 9 8 8 7 6 5 5 5 5 5 5 5 4 3 2 1 2 3 3 4 5 6 7 7 8
6 5 4 3 3 4 5 7 9 9 9 11 12 12 12 11 10 9 10 11 11 11 10 10 10 8 7 7 7 6 5 5 5 5 5 5 4 3 2 2 2 2 3 4 5 6 6 7 8
7 7 5 4 4 5 5 7 9 9 10 11 12 12 12 11 10 10 10 11 11 11 10 10 10 9 8 7 6 6 6 6 5 5 5 5 4 3 3 3 3 3 3 3 3 4 5 7 8
8 7 7 7 6 7 6 7 9 9 10 11 12 12 11 10 10 10 10 10 11 11 10 9 9 9 8 7 6 6 6 6 5 5 5 5 5 4 3 3 2 2 2 2 2 3 4 6 6
10 9 9 9 9 9 8 8 9 10 11 12 12 11 11 10 10 10 10 10 11 11 11 9 9 8 8 8 7 6 6 6 5 5 5 5 5 4 3 2 2 1 1 1 2 3 3 4 5
12 11 11 10 10 9 9 9 10 10 11 12 12 11 11 10 10 10 10 11 11 11 11 10 9 8 8 7 7 6 5 5 5 5 5 5 5 4 4 3 3 2 2 3 3 3 3 4 4
14 12 11 11 11 12 11 10 11 12 13 12 12 11 10 10 10 10 10 10 10 11 11 11 10 9 8 7 7 7 5 5 4 5 5 5 5 5 4 4 3 3 3 4 5 4 4 4 4
15 14 13 13 13 13 13 12 12 13 13 13 12 10 10 10 10 10 9 9 10 11 11 11 10 9 8 7 7 7 7 5 5 5 5 5 5 5 5 4 4 4 3 4 4 4 4 5 5
16 16 16 15 14 13 13 13 12 12 13 13 12 11 11 11 11 10 9 9 9 10 10 9 9 9 8 7 7 6 7 6 6 6 5 5 5 4 5 5 4 4 5 5 4 4 4 5 5
17 16 16 15 14 13 14 13 12 12 13 12 12 11 10 10 11 10 9 9 9 9 9 9 8 8 8 8 7 7 7 7 7 6 6 6 7 6 5 5 5 5 5 6 6 5 4 4 4
16 15 15 15 15 14 15 14 12 12 13 13 12 11 11 11 10 10 10 10 9 10 9 9 8 8 8 7 7 7 7 7 8 8 7 7 7 7 6 7 6 6 6 6 6 5 5 4 4
15 14 13 13 14 15 15 14 13 13 13 14 13 12 13 12 11 10 10 11 11 10 9 10 9 8 8 8 8 7 7 8 7 8 8 8 8 7 7 7 7 7 7 7 6 4 5 4 4
15 13 12 13 14 15 14 13 14 14 14 14 14 13 14 13 12 12 11 11 11 11 11 10 9 8 8 8 8 8 8 8 8 8 9 8 8 8 8 8 8 8 7 7 6 5 5 5 4
15 14 13 13 14 16 15 15 16 16 15 15 15 15 15 15 14 13 12 12 12 12 12 11 10 9 9 9 8 9 9 8 8 8 9 9 8 8 8 8 8 8 7 6 6 6 5 6 5
15 14 13 13 14 15 16 16 17 16 16 15 16 17 17 15 15 14 14 13 12 12 12 11 11 10 10 10 9 9 9 9 10 10 9 9 9 10 10 9 9 9 8 6 6 6 6 6 6
15 14 13 13 16 17 19 19 18 18 16 16 16 18 18 17 14 13 14 14 14 12 12 12 12 12 12 10 11 11 11 11 11 11 11 10 10 10 10 10 10 9 8 6 6 6 6 6 6
15 15 14 15 16 18 19 19 19 19 18 18 18 19 19 18 17 15 15 14 14 13 13 13 12 13 12 11 12 12 12 12 12 13 13 12 12 11 11 11 11 10 9 9 8 8 8 8 7
15 16 16 16 17 19 20 21 20 20 19 20 20 20 19 18 17 15 15 15 15 14 14 13 14 14 14 13 14 14 14 14 14 15 15 15 14 13 12 11 11 11 11 10 10 10 10 9 9
17 18 19 19 20 21 20 21 21 20 19 19 20 20 19 18 18 17 16 16 16 15 15 14 15 14 15 15 15 16 16 16 16 16 16 16 15 15 14 13 13 12 12 12 11 11 11 12 11
19 19 20 21 22 22 20 20 21 21 20 20 21 21 19 19 20 20 17 17 17 16 16 16 16 16 16 16 17 17 18 18 18 18 17 16 16 16 15 15 14 13 13 13 13 12 13 13 13
20 21 22 22 23 21 21 22 21 21 19 19 20 21 21 20 20 21 20 19 18 18 18 18 17 17 17 17 18 19 20 20 20 19 18 18 17 17 17 17 16 15 15 15 14 14 15 14 15
20 22 22 23 23 22 22 22 22 22 21 20 21 22 22 21 20 20 21 20 19 19 19 19 19 19 19 20 20 20 20 21 21 20 20 19 19 19 19 18 17 17 16 17 16 16 16 16 16
21 22 23 23 24 24 23 23 23 22 21 22 23 22 22 22 21 21 22 22 21 20 20 21 21 21 21 21 22 21 21 21 21 20 20 20 20 21 20 19 19 19 18 18 18 18 17 18 17
21 21 23 24 25 25 24 24 23 21 21 21 21 22 22 22 21 21 22 24 24 22 22 22 22 23 23 23 22 22 22 22 21 21 21 21 21 21 21 21 21 20 20 19 19 19 18 18 17
22 22 23 24 24 24 25 25 22 22 22 21 20 21 21 22 22 22 23 24 23 22 23 23 24 24 24 23 22 22 22 21 21 20 20 20 21 20 20 20 21 21 22 22 21 20 19 19 18
Wind_Direction
100 82 56 51 43 32 23 21 17 18 17 14 17 12 8 7 9 14 9 10 14 16 16 13 14 14 10 7 5 1 353 345 341 329 314 306 294 280 268 258 259 249 241 236 233 224 222 220 214
124 100 68 51 44 25 17 13 15 14 11 10 10 9 9 9 10 12 11 13 13 14 15 14 14 15 13 10 9 5 357 353 349 338 327 315 294 280 270 262 256 244 239 231 226 224 222 216 214
160 139 82 50 34 23 16 6 8 8 7 3 2 1 5 8 12 13 12 14 14 14 14 14 12 11 12 12 11 8 5 2 1 351 343 325 305 284 269 263 256 250 244 228 223 224 222 218 216
188 183 133 28 18 18 13 2 1 1 359 356 358 354 357 3 11 13 11 12 13 13 11 10 11 12 14 15 10 9 4 359 1 355 349 340 327 306 272 252 246 256 244 229 227 229 229 222 220
209 207 232 333 3 14 5 354 356 354 348 348 352 350 353 358 6 11 10 11 11 9 6 7 9 11 13 15 14 10 3 360 1 358 357 350 333 313 306 278 251 277 256 233 225 230 234 227 225
213 219 232 287 353 353 353 352 347 344 337 339 344 348 352 352 0 9 8 9 8 6 5 6 8 8 12 17 15 11 5 360 3 5 3 1 347 326 324 299 286 276 256 237 231 230 233 231 226
214 216 231 244 301 318 331 341 343 341 330 333 336 344 349 349 360 12 10 8 7 8 9 10 10 12 12 14 15 13 12 10 12 16 16 8 356 343 329 302 304 298 271 247 239 234 240 236 231
219 214 212 234 280 302 326 326 329 326 327 328 334 342 346 347 355 5 10 9 5 6 8 10 13 14 12 12 14 12 12 10 12 19 20 14 4 352 341 341 317 303 289 261 242 236 236 236 233
222 216 214 235 262 279 292 304 314 314 320 324 330 338 344 343 351 359 7 8 5 4 6 8 15 14 13 12 13 12 11 8 5 12 18 18 15 6 351 352 350 329 287 270 246 244 240 236 234
221 218 225 244 261 270 278 290 297 303 311 314 320 328 335 339 345 352 3 1 2 3 3 6 14 15 14 13 10 6 7 8 3 5 13 15 20 17 2 5 343 318 280 266 243 244 254 254 247
223 218 227 243 255 262 268 277 283 290 301 310 313 320 326 330 337 344 352 350 355 359 1 4 12 13 11 9 9 6 1 2 3 1 4 7 11 10 359 1 339 314 299 285 300 279 266 258 249
230 223 230 240 245 254 260 267 275 285 295 306 311 313 324 326 327 332 341 343 346 354 357 0 6 9 7 7 5 4 0 1 3 358 359 360 0 359 355 349 343 318 306 299 306 292 281 271 267
231 226 231 238 240 245 254 258 269 283 293 304 307 308 320 327 323 325 332 341 347 351 352 357 1 5 9 7 1 356 357 357 359 348 341 338 342 348 349 345 338 329 316 306 300 289 278 274 272
230 230 232 238 241 245 254 260 267 279 288 297 303 305 312 316 324 323 327 337 341 345 347 350 356 0 5 4 359 0 6 3 356 348 342 334 331 336 343 346 343 335 336 329 310 302 284 271 272
229 230 232 235 240 250 258 265 273 276 281 289 294 305 309 312 318 316 321 331 335 338 340 343 349 355 359 359 358 359 3 1 356 346 341 340 339 329 331 334 341 343 344 340 330 312 308 294 289
229 230 231 230 235 247 259 264 268 271 276 282 289 301 304 307 311 311 314 321 327 328 331 334 336 343 349 351 353 353 350 350 353 349 343 341 339 336 330 333 333 333 335 330 327 321 311 303 295
227 228 230 229 236 245 254 260 264 269 273 282 291 298 301 306 306 308 312 318 320 319 322 325 325 331 338 341 342 345 343 342 342 343 341 338 337 337 332 332 321 319 328 325 320 317 317 309 299
222 223 228 231 236 246 254 261 264 268 270 277 284 294 299 306 309 310 312 315 318 319 322 318 313 317 325 330 330 334 334 331 330 331 333 332 333 332 328 327 317 315 319 318 317 311 306 304 295
222 226 229 234 239 244 250 253 257 265 269 276 280 286 293 297 305 309 311 313 313 315 315 314 309 312 315 316 319 325 326 328 324 321 326 328 328 328 327 320 317 316 314 310 308 312 309 301 295
226 232 237 235 234 241 245 248 252 257 265 274 281 282 287 291 298 302 305 305 306 306 308 308 305 304 304 305 308 314 317 317 319 323 322 323 325 324 321 315 317 316 312 305 303 303 306 302 289
227 230 232 234 235 242 245 246 248 251 260 269 274 276 280 286 291 293 298 301 307 305 306 305 302 301 300 298 301 304 307 307 310 315 318 316 314 317 317 314 314 312 310 305 303 300 300 302 293
228 226 232 233 236 242 248 251 249 254 258 265 271 273 277 280 287 287 289 295 298 299 300 298 297 299 298 294 295 297 300 302 304 306 307 307 307 310 310 307 306 306 301 297 294 295 294 295 294
226 229 235 235 241 247 249 253 253 255 257 262 267 273 275 279 278 279 285 290 292 293 292 291 292 294 292 288 290 292 294 297 300 301 301 299 298 301 305 301 298 298 296 293 291 288 286 288 287
228 229 235 239 242 245 249 253 251 253 259 262 264 272 272 274 275 278 282 286 288 286 287 288 289 290 290 289 289 289 289 291 294 298 298 295 293 295 299 300 297 297 294 291 288 286 282 284 284
232 233 236 238 242 244 245 250 253 255 259 262 268 270 270 271 274 277 279 283 285 284 281 282 283 285 285 287 287 286 286 286 288 292 293 294 293 293 295 296 295 293 293 288 285 284 283 281 280
235 235 238 242 246 248 246 251 254 259 264 268 270 268 270 274 277 278 280 281 281 283 282 280 280 280 281 284 284 282 282 283 284 286 288 290 292 291 291 293 291 288 287 286 284 283 282 281 279
235 237 241 246 249 251 252 256 257 257 262 266 270 270 271 271 273 275 275 277 279 281 283 284 280 279 280 280 282 281 280 280 280 281 284 285 286 287 287 287 286 284 281 281 280 279 280 282 279
239 241 244 245 248 252 255 258 261 262 262 266 268 268 268 269 269 271 274 277 280 280 282 283 281 279 279 279 280 281 281 278 277 278 279 281 282 283 284 283 283 281 278 277 277 276 277 278 278
238 240 244 246 248 253 256 260 263 264 262 264 266 268 270 270 272 274 275 277 279 280 280 279 279 280 280 279 280 280 281 280 278 277 276 277 279 281 280 279 280 278 276 275 275 276 276 276 276
244 245 245 245 247 252 256 260 262 262 263 263 267 271 271 273 276 276 277 277 279 280 282 282 282 281 280 279 278 278 278 279 279 276 274 276 277 278 278 279 279 278 279 276 277 276 275 274 274
Height
5915 5915 5914 5914 5914 5913 5911 5910 5909 5909 5908 5907 5906 5904 5903 5902 5900 5900 5896 5892 5891 5889 5888 5887 5886 5885 5884 5883 5882 5881 5881 5880 5879 5879 5878 5878 5877 5877 5877 5876 5876 5876 5876 5876 5877 5877 5878 5878 5879
5915 5915 5915 5915 5914 5912 5911 5909 5909 5909 5908 5907 5906 5905 5903 5902 5900 5898 5895 5893 5891 5890 5888 5887 5886 5885 5884 5883 5882 5881 5881 5880 5879 5879 5878 5877 5877 5876 5876 5875 5875 5874 5874 5875 5875 5876 5877 5877 5878
5915 5915 5916 5915 5913 5912 5911 5909 5909 5908 5908 5908 5907 5905 5904 5902 5900 5898 5896 5894 5892 5890 5889 5887 5886 5885 5884 5883 5882 5881 5881 5880 5879 5879 5878 5877 5876 5875 5874 5874 5874 5873 5872 5873 5874 5875 5876 5876 5877
5915 5915 5915 5915 5913 5912 5911 5909 5908 5908 5908 5907 5907 5905 5904 5902 5900 5898 5896 5894 5892 5891 5890 5888 5886 5885 5884 5883 5882 5882 5881 5880 5879 5878 5877 5876 5876 5875 5874 5874 5873 5872 5871 5872 5873 5874 5875 5875 5876
5914 5915 5914 5913 5912 5912 5910 5909 5909 5909 5908 5907 5906 5905 5904 5902 5900 5898 5896 5894 5893 5892 5890 5889 5887 5886 5885 5884 5883 5882 5881 5880 5879 5878 5877 5876 5875 5875 5874 5873 5872 5872 5871 5871 5872 5873 5874 5874 5875
5914 5914 5914 5912 5912 5911 5911 5910 5909 5909 5908 5907 5906 5905 5904 5902 5899 5898 5896 5895 5894 5892 5890 5889 5887 5886 5885 5884 5883 5882 5881 5880 5879 5878 5877 5876 5875 5874 5874 5873 5872 5872 5871 5871 5872 5872 5873 5874 5874
5913 5913 5912 5912 5911 5910 5911 5910 5909 5909 5908 5907 5906 5905 5903 5901 5898 5897 5896 5895 5894 5892 5891 5889 5887 5886 5885 5884 5883 5882 5881 5880 5879 5878 5877 5876 5875 5874 5873 5873 5872 5872 5871 5871 5872 5872 5872 5872 5873
5911 5912 5911 5910 5910 5910 5910 5909 5909 5908 5907 5906 5905 5904 5903 5901 5899 5897 5896 5895 5894 5892 5891 5889 5888 5886 5885 5884 5883 5882 5881 5880 5879 5878 5877 5876 5875 5874 5873 5872 5872 5871 5871 5871 5870 5870 5871 5871 5871
5909 5911 5910 5909 5909 5909 5909 5908 5908 5907 5906 5905 5904 5904 5902 5900 5899 5897 5896 5895 5894 5892 5891 5889 5888 5887 5885 5884 5883 5882 5881 5880 5879 5878 5877 5876 5875 5874 5873 5872 5872 5871 5870 5870 5870 5870 5870 5870 5870
5907 5908 5908 5908 5907 5907 5907 5908 5907 5906 5906 5905 5904 5903 5901 5900 5898 5897 5896 5895 5894 5893 5891 5889 5888 5887 5886 5884 5883 5882 5881 5880 5879 5878 5877 5876 5875 5874 5873 5872 5871 5871 5870 5870 5869 5869 5869 5869 5869
5904 5905 5905 5905 5905 5905 5906 5906 5905 5905 5905 5904 5902 5902 5901 5899 5898 5896 5896 5895 5894 5892 5891 5889 5888 5887 5886 5885 5883 5882 5881 5880 5879 5878 5877 5876 5875 5874 5873 5872 5871 5870 5870 5869 5869 5869 5869 5868 5868
5902 5903 5903 5903 5903 5903 5903 5904 5904 5904 5904 5903 5902 5901 5900 5898 5897 5896 5895 5894 5893 5892 5890 5889 5888 5886 5885 5884 5883 5881 5880 5880 5879 5878 5877 5876 5875 5874 5873 5872 5871 5870 5869 5869 5868 5868 5867 5867 5867
5899 5900 5901 5901 5901 5901 5901 5902 5902 5901 5902 5901 5901 5899 5899 5897 5896 5896 5895 5893 5892 5891 5890 5889 5887 5886 5885 5884 5883 5882 5880 5879 5879 5878 5877 5876 5875 5874 5873 5872 5871 5870 5869 5868 5867 5866 5866 5866 5865
5896 5897 5898 5898 5898 5898 5899 5900 5900 5900 5900 5900 5899 5898 5897 5896 5895 5894 5893 5892 5891 5890 5889 5888 5887 5885 5884 5883 5882 5881 5880 5879 5878 5877 5876 5876 5874 5873 5872 5871 5870 5870 5868 5867 5866 5866 5865 5864 5864
5893 5894 5895 5896 5896 5896 5897 5898 5898 5898 5898 5898 5897 5896 5895 5894 5893 5892 5892 5891 5890 5889 5888 5887 5886 5885 5884 5883 5882 5881 5880 5879 5878 5877 5876 5874 5873 5871 5871 5870 5869 5868 5867 5866 5866 5865 5864 5863 5862
5890 5891 5892 5894 5894 5894 5896 5896 5896 5896 5895 5895 5894 5894 5894 5893 5892 5891 5890 5889 5888 5887 5886 5886 5885 5884 5883 5882 5881 5880 5879 5878 5877 5876 5875 5873 5872 5871 5870 5869 5868 5867 5866 5865 5865 5864 5863 5862 5861
5887 5889 5889 5891 5891 5891 5892 5893 5893 5892 5893 5892 5892 5892 5892 5891 5891 5890 5889 5887 5887 5885 5885 5884 5884 5883 5882 5881 5880 5879 5878 5877 5876 5875 5874 5872 5871 5870 5869 5868 5867 5866 5865 5864 5863 5862 5862 5861 5861
5884 5885 5886 5887 5888 5888 5889 5890 5890 5889 5889 5890 5889 5889 5889 5889 5889 5889 5888 5886 5885 5883 5883 5883 5882 5881 5880 5879 5879 5878 5877 5876 5875 5874 5872 5871 5870 5869 5868 5867 5866 5865 5864 5863 5862 5861 5861 5860 5860
5880 5881 5882 5883 5884 5884 5885 5886 5887 5886 5886 5886 5886 5886 5887 5887 5887 5887 5886 5885 5884 5883 5882 5881 5880 5879 5879 5878 5877 5877 5875 5874 5873 5872 5871 5870 5869 5868 5867 5866 5865 5863 5862 5861 5860 5860 5859 5859 5858
5876 5877 5878 5879 5880 5881 5881 5882 5883 5883 5883 5883 5884 5884 5884 5884 5884 5884 5884 5883 5882 5880 5879 5879 5878 5878 5877 5876 5875 5875 5874 5873 5872 5870 5869 5868 5867 5866 5865 5864 5863 5862 5861 5860 5859 5858 5858 5857 5857
5872 5873 5875 5876 5877 5877 5878 5879 5879 5880 5880 5880 5881 5881 5882 5882 5881 5881 5881 5881 5880 5878 5877 5877 5876 5875 5875 5874 5873 5872 5872 5871 5870 5869 5868 5867 5866 5864 5863 5862 5861 5860 5859 5858 5857 5856 5856 5855 5855
5869 5871 5872 5872 5873 5874 5875 5875 5876 5876 5877 5877 5877 5878 5878 5879 5879 5878 5878 5878 5877 5876 5875 5874 5873 5873 5872 5872 5871 5870 5869 5868 5867 5866 5865 5864 5863 5862 5861 5860 5859 5858 5856 5856 5855 5854 5854 5854 5853
5865 5867 5868 5869 5869 5870 5871 5871 5873 5872 5873 5873 5874 5874 5875 5875 5875 5875 5875 5875 5874 5873 5872 5871 5870 5870 5869 5868 5868 5867 5866 5865 5864 5863 5862 5861 5860 5860 5858 5857 5856 5855 5854 5853 5852 5852 5852 5851 5851
5861 5863 5864 5865 5866 5866 5867 5867 5868 5868 5868 5869 5869 5869 5870 5871 5871 5870 5871 5871 5870 5869 5869 5868 5867 5866 5866 5865 5864 5863 5862 5862 5861 5860 5859 5858 5857 5856 5855 5854 5853 5852 5851 5850 5850 5849 5849 5848 5848
5857 5859 5860 5860 5861 5862 5863 5862 5863 5864 5864 5864 5864 5864 5865 5866 5866 5865 5866 5866 5865 5865 5865 5864 5863 5862 5861 5861 5860 5859 5858 5857 5857 5856 5855 5854 5853 5852 5851 5850 5849 5849 5848 5847 5847 5846 5845 5845 5844
5853 5854 5856 5856 5856 5857 5858 5857 5859 5859 5859 5859 5859 5859 5860 5860 5861 5861 5860 5860 5861 5860 5860 5859 5858 5857 5857 5856 5855 5854 5853 5853 5852 5851 5850 5850 5849 5848 5847 5846 5845 5845 5844 5844 5843 5842 5842 5841 5840
5848 5849 5851 5852 5851 5852 5852 5853 5853 5853 5854 5854 5854 5854 5855 5855 5855 5855 5855 5855 5855 5855 5854 5853 5853 5852 5851 5851 5850 5849 5848 5847 5847 5846 5845 5844 5844 5843 5842 5842 5841 5840 5840 5839 5839 5838 5837 5837 5836
5844 5845 5846 5846 5846 5846 5847 5847 5848 5848 5848 5849 5848 5848 5848 5848 5848 5848 5848 5849 5849 5849 5849 5848 5847 5847 5846 5845 5844 5843 5843 5842 5841 5840 5840 5839 5838 5837 5837 5836 5835 5835 5834 5834 5833 5833 5832 5832 5831
5839 5840 5840 5840 5841 5841 5841 5844 5842 5842 5843 5843 5842 5842 5842 5842 5841 5842 5842 5842 5842 5841 5842 5841 5841 5840 5839 5839 5838 5837 5836 5835 5835 5834 5834 5833 5832 5831 5831 5830 5830 5829 5828 5828 5828 5827 5827 5826 5826
5833 5834 5835 5836 5836 5836 5836 5839 5836 5837 5837 5837 5837 5837 5836 5835 5834 5834 5835 5835 5835 5835 5834 5834 5834 5833 5833 5832 5831 5830 5830 5829 5828 5828 5827 5827 5826 5826 5825 5824 5824 5823 5822 5822 5821 5821 5821 5821 5820